Temperature
17 18 18 18 18 18 18 18 18 18 18 17 16 16 16 15 15 15 14 14 14 13 13 13 13 12 12 12 12 12 12 12 12 12 11 11 10 10 9 9 8 7 7
17 17 17 17 18 18 18 18 18 18 18 17 17 17 17 16 16 15 15 14 14 13 13 13 13 12 12 12 12 12 12 12 12 11 11 11 10 9 9 8 7 7 6
16 16 17 17 17 17 17 18 18 18 18 18 17 17 16 16 15 15 15 14 14 13 13 13 13 13 12 12 12 12 12 11 11 11 11 11 10 9 8 8 7 6 6
15 16 16 16 17 17 17 17 17 17 17 17 17 17 16 16 16 16 15 15 14 14 13 13 13 12 12 12 12 12 11 11 11 11 10 10 9 9 8 7 6 6 5
15 15 16 16 16 16 17 17 17 17 17 17 17 17 17 17 16 16 15 15 14 14 13 13 12 12 12 12 11 11 11 11 11 10 10 9 8 8 7 7 6 5 5
15 15 15 15 16 16 16 16 16 16 16 16 16 16 16 16 16 16 15 15 14 14 13 12 12 12 11 11 11 11 10 10 10 10 9 8 8 7 6 5 5 5 5
15 15 15 15 15 15 15 16 16 16 16 16 16 16 16 16 16 16 15 15 14 14 13 12 11 11 11 11 10 10 10 9 9 9 8 7 7 6 5 4 3 3 3
14 14 14 14 14 14 14 15 15 15 15 15 15 15 15 15 15 15 15 15 14 14 13 12 11 11 10 10 9 9 9 8 8 8 7 6 6 5 4 3 2 1 1
13 13 13 13 13 13 13 14 14 14 14 14 14 14 15 15 15 15 15 14 14 13 12 11 10 10 9 9 9 8 8 8 7 7 6 5 5 4 3 2 1 -1 -2
12 12 12 12 12 12 12 12 13 13 13 14 14 14 14 14 14 14 14 13 13 12 11 10 10 9 8 8 8 7 7 7 6 6 5 4 4 3 2 1 0 -1 -3
11 10 10 10 11 11 11 12 12 12 12 13 13 13 13 13 13 13 13 12 11 11 10 9 9 8 7 7 6 6 6 6 5 5 4 3 3 2 1 0 -1 -2 -3
10 9 9 9 9 10 10 10 11 11 11 12 12 12 12 12 12 12 11 11 10 9 8 8 7 7 6 6 6 5 5 4 4 3 3 2 2 1 0 -0 -1 -2 -3
9 8 8 8 8 8 9 9 10 10 10 11 11 11 11 11 11 11 10 9 9 8 7 6 6 6 5 5 5 4 4 3 3 2 2 1 1 0 -0 -1 -2 -3 -4
8 7 7 7 7 7 8 8 8 9 9 10 10 10 10 10 9 9 8 8 7 6 5 5 5 5 4 4 4 3 3 2 2 1 1 0 -0 -1 -1 -2 -3 -4 -5
6 6 6 6 6 6 6 7 7 7 8 8 8 8 8 8 7 7 6 6 5 5 4 4 4 4 3 3 3 2 2 1 1 1 0 -0 -1 -2 -3 -4 -5 -6 -7
5 5 5 5 5 5 5 5 6 6 6 6 7 7 6 6 5 5 4 4 3 3 3 3 3 3 2 2 2 1 1 1 0 -0 -1 -1 -2 -3 -4 -5 -6 -7 -7
5 4 4 4 5 5 5 5 5 4 5 5 4 4 4 4 3 3 3 2 2 2 2 2 2 2 1 1 1 1 0 -0 -1 -1 -1 -2 -3 -4 -4 -5 -6 -7 -7
4 4 4 4 4 4 4 4 3 3 3 3 2 2 2 2 2 1 1 2 2 2 2 1 1 1 1 0 0 -0 -1 -1 -1 -2 -3 -3 -4 -4 -5 -7 -7 -7 -7
4 4 3 3 3 3 3 3 2 2 2 2 1 1 1 1 1 1 1 1 1 1 1 1 0 0 -0 -0 -1 -1 -1 -2 -2 -3 -4 -5 -5 -5 -7 -8 -8 -8 -7
3 3 3 3 3 2 2 2 2 1 1 1 1 0 1 1 1 1 1 1 1 0 0 -0 -0 -1 -1 -1 -2 -2 -3 -3 -3 -4 -4 -5 -6 -7 -8 -8 -8 -8 -8
3 2 2 2 2 1 1 2 1 1 1 0 0 0 0 0 0 0 0 0 0 -0 -0 -1 -1 -1 -2 -2 -3 -3 -4 -4 -5 -5 -5 -5 -6 -7 -8 -8 -8 -8 -8
2 2 2 1 1 1 1 1 1 0 0 0 0 0 0 0 0 0 -0 -0 -0 -0 -1 -1 -1 -2 -2 -3 -3 -4 -5 -6 -6 -6 -6 -6 -7 -8 -8 -8 -7 -8 -8
2 1 1 1 0 0 0 1 0 0 0 0 0 0 0 -0 -0 -0 -0 -0 -1 -1 -1 -2 -2 -3 -3 -4 -4 -5 -5 -6 -6 -7 -7 -8 -8 -8 -7 -7 -7 -8 -8
1 1 0 0 0 0 0 1 1 0 0 0 0 -0 -0 -0 -0 -1 -1 -1 -1 -1 -2 -2 -3 -3 -4 -4 -5 -5 -6 -6 -7 -7 -7 -8 -8 -8 -8 -7 -7 -7 -7
1 1 1 1 1 0 0 0 1 1 0 0 0 0 -0 -0 -1 -1 -1 -2 -2 -2 -3 -3 -4 -4 -4 -5 -6 -7 -7 -8 -8 -8 -8 -7 -7 -7 -7 -7 -7 -7 -7
1 1 1 1 1 1 1 1 1 1 1 1 0 -0 -0 -1 -1 -1 -2 -2 -3 -3 -3 -4 -4 -5 -6 -6 -7 -7 -8 -8 -8 -8 -8 -8 -8 -8 -8 -7 -7 -7 -7
Wind_Speed
13 10 10 11 10 9 11 13 15 15 14 12 12 11 11 10 9 8 12 15 16 17 13 9 9 8 8 8 8 5 5 3 2 3 2 3 2 1 1 2 3 3 4
12 11 10 9 9 10 10 12 14 15 16 15 14 11 10 7 7 7 9 14 15 16 14 12 11 9 8 9 7 5 4 3 2 3 3 1 2 2 1 0 2 1 3
13 11 10 10 8 9 10 11 12 14 15 14 8 6 5 4 3 5 7 8 13 15 14 13 11 10 9 9 8 7 7 4 2 2 3 4 4 2 2 2 2 2 1
10 9 9 9 9 10 9 10 11 12 13 13 13 15 12 10 9 8 6 7 9 12 14 14 12 11 8 9 8 6 5 6 4 2 3 2 3 2 2 3 2 2 1
5 6 7 8 8 7 7 7 8 10 11 13 16 18 13 9 6 7 9 8 7 8 11 13 11 11 9 9 8 7 6 4 5 4 3 3 3 2 2 3 4 3 3
2 3 4 5 6 5 5 5 6 9 10 13 15 17 15 13 13 12 11 9 7 7 9 11 10 10 9 9 9 7 8 5 6 5 3 3 3 2 2 3 3 4 4
3 4 5 5 6 7 6 6 6 8 10 12 15 17 17 19 20 17 15 13 9 7 10 11 10 10 9 9 8 8 8 7 7 5 4 3 3 3 3 2 2 3 3
5 5 5 5 6 6 6 6 7 9 9 11 13 14 15 14 13 14 14 14 11 9 10 11 11 11 11 10 9 8 7 6 6 6 5 3 3 3 3 3 2 2 3
7 7 7 7 7 7 7 8 9 10 10 11 11 12 14 13 13 13 12 10 10 11 12 12 12 11 10 10 9 7 7 7 5 5 4 3 2 2 2 3 4 3 3
9 9 8 8 8 8 8 8 9 11 10 9 10 11 13 13 14 14 14 13 14 14 14 14 13 12 11 10 9 7 7 6 4 3 4 2 2 2 2 3 3 4 5
9 8 8 9 9 9 7 7 7 7 7 8 9 12 12 13 14 13 14 14 14 15 15 15 14 13 11 9 8 7 7 6 4 3 3 2 2 2 3 3 3 4 4
8 7 8 8 9 9 8 6 5 5 6 8 11 12 13 14 14 14 14 15 15 14 14 14 13 12 11 9 8 7 6 5 3 1 1 2 2 3 3 3 4 5 5
9 8 7 7 8 8 7 5 2 1 4 9 13 13 14 14 14 15 15 15 15 14 14 13 13 12 10 9 8 7 6 4 3 1 1 2 3 4 4 5 5 5 6
7 7 8 7 6 6 5 4 3 4 7 10 12 13 13 13 14 14 15 15 15 15 14 13 12 11 10 9 8 7 6 5 3 2 2 3 3 5 6 6 7 7 7
6 7 7 6 5 4 4 4 5 7 8 11 12 13 13 13 14 14 14 14 14 15 14 13 12 11 8 7 7 6 5 4 2 3 3 4 6 8 7 6 6 5 5
5 6 6 5 4 4 4 6 7 8 10 11 12 13 14 15 14 14 15 15 14 14 13 12 11 9 7 10 9 6 4 3 2 3 4 5 6 9 12 14 15 13 9
4 4 4 4 3 4 5 7 8 10 12 12 13 13 15 15 14 15 15 14 13 12 11 10 9 8 8 9 7 7 4 2 2 3 4 4 6 9 7 11 15 14 17
2 2 3 4 5 7 8 10 11 12 13 13 14 14 15 15 14 14 14 13 11 10 9 8 8 7 6 7 5 5 4 2 1 2 3 5 6 8 10 8 7 8 9
2 3 4 6 8 9 10 12 13 13 14 14 13 13 14 15 14 13 12 10 10 9 7 6 6 6 4 5 3 3 2 1 3 4 5 6 7 14 17 10 9 10 10
5 5 6 8 9 9 10 12 13 13 13 13 13 13 13 13 12 11 10 8 8 8 7 6 5 4 2 1 1 1 2 2 3 4 5 9 12 15 17 10 9 11 11
6 7 8 8 8 8 11 12 12 12 12 13 13 12 12 11 11 10 8 8 7 7 6 5 4 3 2 2 2 4 1 2 3 4 5 6 16 18 18 16 8 13 15
7 8 8 8 8 9 11 13 12 12 12 13 13 12 10 9 9 9 8 7 7 7 5 5 4 3 4 4 5 7 7 7 3 5 5 8 17 18 18 14 15 19 15
7 8 9 9 8 8 10 12 11 11 12 12 12 10 10 8 7 8 7 6 5 5 4 3 3 2 3 4 6 8 9 11 6 6 12 15 17 16 12 14 17 14 8
7 8 9 9 9 8 10 10 10 11 12 12 10 9 9 8 6 5 5 5 4 4 3 3 2 1 2 3 4 4 5 8 8 7 9 13 14 12 12 12 10 7 7
7 8 8 9 10 9 10 9 9 10 11 10 9 8 7 7 6 5 4 4 3 4 4 2 2 1 2 4 8 7 5 5 6 6 4 5 7 8 8 8 7 7 8
8 9 9 10 10 10 9 8 8 10 11 10 8 6 6 6 5 5 5 7 5 7 6 3 1 1 4 8 10 11 12 12 12 7 5 6 7 8 9 10 10 10 9
Wind_Direction
259 255 247 245 240 230 217 207 204 201 193 189 189 189 194 193 190 189 182 178 173 169 161 156 153 151 150 149 138 121 108 83 80 95 58 19 28 84 134 159 162 170 164
266 260 251 247 240 234 225 216 208 203 197 197 195 193 189 187 185 181 180 178 172 169 165 159 161 155 145 144 147 136 123 98 67 126 119 52 339 344 26 60 152 132 113
251 255 252 249 244 237 228 223 213 208 203 196 180 151 119 97 139 177 180 179 171 167 164 161 157 156 154 159 157 147 138 138 86 74 142 153 216 284 331 14 56 92 95
248 248 248 250 246 241 233 226 218 210 203 192 179 174 180 183 188 180 168 160 163 162 160 158 155 155 152 153 154 147 140 135 138 104 68 103 137 154 297 325 356 11 55
254 257 257 253 255 250 241 234 225 213 203 195 189 189 189 178 153 147 149 151 152 154 155 154 151 151 149 147 140 137 130 129 142 143 129 103 79 96 155 277 315 328 314
336 305 297 289 282 277 261 245 229 221 208 199 193 194 184 161 154 159 162 157 151 149 152 150 149 146 145 143 138 133 128 124 124 122 124 136 140 149 162 225 275 289 289
12 345 332 318 304 295 280 259 235 227 215 204 198 195 184 173 173 170 169 163 162 162 161 153 149 144 139 134 129 127 123 121 124 122 118 123 133 139 151 176 250 284 294
360 337 317 304 294 287 279 265 249 237 220 209 203 193 180 178 176 171 169 170 168 157 153 148 145 140 137 134 129 124 121 118 118 119 125 128 136 144 158 170 180 293 297
337 324 316 309 297 287 274 257 250 243 227 211 196 183 177 173 168 162 155 152 147 146 146 143 140 138 134 133 128 125 123 121 119 129 134 137 153 157 168 167 168 194 270
330 325 320 312 303 290 282 272 252 238 225 204 187 178 171 165 159 155 154 151 149 148 147 144 140 135 131 130 124 125 126 123 127 138 145 155 177 183 187 191 195 193 216
323 321 317 315 313 308 296 282 264 240 212 190 174 160 156 151 149 151 150 149 146 148 148 145 140 136 132 129 127 127 126 125 126 132 158 200 202 210 217 214 216 220 216
313 316 317 319 319 317 312 303 279 227 193 168 152 148 145 145 145 146 146 145 143 143 141 138 135 132 128 127 126 126 121 124 131 134 157 246 242 236 236 234 239 242 234
317 320 320 320 320 319 320 323 335 138 140 139 138 138 140 142 142 142 141 139 138 135 132 131 129 126 122 117 113 113 110 106 98 79 283 273 262 263 260 254 252 253 260
314 318 319 320 324 328 338 4 34 82 113 124 129 132 135 135 134 133 133 133 132 130 127 123 119 117 115 112 110 108 101 89 66 32 339 298 273 264 264 261 256 258 264
320 326 326 327 333 354 16 48 65 80 100 112 118 120 120 120 121 123 123 122 121 119 117 114 111 110 110 113 113 107 98 81 38 1 340 319 304 292 285 279 267 264 263
319 328 334 345 352 17 48 74 80 87 96 103 108 112 114 115 115 115 115 113 111 111 111 113 115 113 114 119 114 110 100 77 30 348 335 322 314 313 318 311 304 298 292
319 331 343 355 14 53 82 90 94 95 95 98 101 105 109 109 109 111 110 110 108 107 108 110 113 114 121 122 116 107 107 80 23 339 326 325 323 330 303 301 303 299 299
347 8 28 44 57 75 87 92 93 95 97 97 98 101 104 105 105 106 106 106 107 110 112 115 119 121 129 130 124 115 112 97 331 306 298 297 298 305 305 289 287 280 283
64 64 71 80 80 87 95 97 95 96 97 98 100 102 106 107 107 107 107 109 112 113 116 120 122 125 138 151 143 125 147 251 292 293 296 306 297 309 315 312 299 293 290
77 78 80 86 88 91 99 101 101 101 102 103 104 104 106 109 111 112 112 111 114 117 117 112 114 125 136 160 171 75 164 285 299 300 297 315 318 315 317 311 301 301 299
90 89 86 86 93 100 102 102 102 103 107 107 105 105 106 109 112 110 110 114 114 111 108 104 92 85 76 32 360 359 53 298 304 308 306 306 318 318 318 318 308 302 308
100 99 96 91 91 101 106 105 105 109 109 108 107 107 108 112 115 115 112 111 115 112 108 102 84 54 32 26 9 357 346 337 315 303 297 301 315 320 321 321 314 315 322
116 112 110 104 98 102 112 113 113 114 113 111 111 112 110 109 115 119 119 112 108 110 107 102 90 49 18 2 1 351 342 335 325 299 310 316 322 325 323 317 320 325 320
129 126 123 119 113 109 111 117 121 121 118 117 116 115 114 109 101 98 105 111 114 113 113 111 106 47 342 317 302 299 311 320 314 304 316 328 329 327 321 320 319 312 302
133 132 129 125 123 120 118 122 124 124 120 118 118 116 112 111 102 93 99 111 118 141 140 148 161 182 299 313 335 336 316 313 310 333 345 333 329 330 326 321 316 313 313
133 130 129 129 129 127 124 125 127 129 129 127 122 116 114 112 111 106 88 82 93 91 94 115 123 273 327 337 341 337 337 338 340 350 333 326 323 321 321 320 319 317 314
Height
1458 1461 1463 1466 1469 1471 1473 1475 1477 1480 1483 1485 1487 1490 1493 1495 1498 1501 1503 1506 1508 1511 1513 1515 1517 1519 1521 1523 1525 1526 1527 1527 1527 1527 1526 1525 1524 1524 1523 1523 1522 1522 1520
1452 1455 1457 1460 1462 1464 1467 1469 1470 1473 1475 1478 1480 1483 1486 1489 1493 1496 1499 1501 1503 1506 1508 1510 1513 1515 1518 1519 1521 1522 1523 1524 1524 1524 1523 1523 1523 1521 1520 1520 1519 1519 1518
1446 1449 1451 1454 1456 1458 1460 1462 1464 1466 1468 1471 1474 1477 1481 1483 1486 1489 1492 1495 1498 1500 1503 1506 1509 1511 1514 1515 1517 1519 1520 1520 1521 1520 1521 1519 1519 1519 1518 1516 1516 1515 1514
1442 1444 1446 1448 1450 1452 1454 1456 1457 1459 1461 1464 1466 1468 1471 1474 1477 1481 1485 1489 1492 1495 1498 1501 1504 1506 1509 1511 1513 1515 1516 1516 1516 1516 1516 1516 1516 1516 1514 1514 1512 1511 1511
1439 1440 1442 1444 1445 1447 1448 1449 1451 1452 1454 1456 1458 1461 1464 1467 1471 1475 1479 1482 1486 1489 1492 1496 1499 1501 1504 1507 1509 1510 1511 1512 1512 1512 1512 1512 1512 1511 1511 1509 1509 1508 1507
1438 1439 1439 1440 1441 1442 1443 1444 1445 1446 1448 1449 1451 1454 1457 1460 1464 1468 1472 1476 1480 1483 1487 1490 1493 1496 1499 1502 1504 1506 1507 1508 1508 1508 1508 1508 1507 1507 1506 1504 1502 1501 1500
1437 1437 1437 1437 1437 1437 1438 1438 1438 1439 1441 1442 1444 1446 1450 1453 1457 1461 1465 1469 1473 1476 1480 1484 1488 1491 1494 1497 1499 1501 1502 1503 1504 1504 1504 1504 1503 1503 1502 1500 1498 1495 1492
1436 1436 1435 1434 1433 1433 1432 1432 1432 1432 1433 1435 1436 1439 1442 1446 1451 1455 1459 1463 1467 1471 1474 1479 1483 1487 1490 1493 1495 1497 1498 1499 1500 1500 1500 1500 1499 1498 1497 1496 1494 1490 1486
1435 1433 1432 1430 1429 1428 1427 1426 1425 1425 1426 1427 1429 1432 1435 1439 1444 1449 1453 1457 1461 1465 1469 1474 1478 1482 1485 1488 1491 1493 1494 1496 1496 1496 1497 1496 1495 1495 1493 1492 1490 1488 1483
1432 1430 1428 1426 1424 1422 1420 1419 1418 1417 1418 1419 1421 1424 1428 1433 1438 1442 1446 1451 1455 1460 1464 1469 1473 1477 1481 1484 1487 1489 1491 1492 1493 1493 1493 1492 1492 1490 1489 1487 1485 1483 1480
1430 1427 1425 1422 1419 1416 1413 1411 1409 1409 1410 1411 1414 1417 1422 1427 1432 1437 1441 1446 1450 1455 1460 1464 1469 1473 1477 1481 1484 1486 1487 1488 1489 1489 1489 1488 1487 1486 1484 1482 1480 1478 1474
1427 1424 1421 1417 1414 1410 1407 1405 1402 1401 1402 1405 1408 1412 1417 1421 1426 1432 1437 1442 1446 1451 1455 1460 1465 1470 1474 1478 1481 1483 1484 1485 1486 1486 1485 1484 1483 1481 1479 1477 1474 1472 1468
1422 1419 1416 1413 1410 1406 1403 1400 1398 1397 1398 1401 1404 1408 1413 1418 1423 1428 1433 1438 1443 1447 1453 1458 1463 1468 1472 1476 1478 1480 1481 1482 1483 1482 1481 1480 1478 1476 1473 1471 1468 1465 1462
1419 1416 1412 1409 1406 1403 1400 1397 1396 1395 1396 1399 1402 1406 1411 1416 1421 1426 1431 1435 1440 1445 1451 1457 1462 1467 1471 1474 1476 1477 1478 1479 1479 1478 1477 1475 1473 1470 1468 1465 1462 1459 1455
1416 1413 1410 1407 1404 1401 1398 1397 1396 1396 1397 1399 1402 1406 1410 1415 1420 1425 1429 1434 1439 1445 1451 1456 1461 1466 1469 1472 1473 1475 1475 1476 1475 1474 1473 1471 1468 1465 1462 1459 1456 1453 1449
1414 1411 1409 1406 1403 1400 1398 1397 1397 1398 1399 1402 1404 1407 1411 1416 1420 1424 1429 1434 1440 1446 1452 1457 1462 1465 1468 1470 1471 1472 1473 1472 1471 1470 1468 1466 1463 1459 1456 1453 1451 1448 1444
1413 1410 1408 1405 1402 1400 1400 1399 1400 1401 1402 1405 1407 1410 1413 1418 1422 1426 1431 1436 1442 1448 1454 1458 1462 1464 1466 1468 1469 1470 1470 1468 1467 1465 1463 1460 1457 1453 1450 1447 1444 1441 1438
1411 1409 1407 1405 1403 1402 1402 1402 1403 1404 1406 1408 1411 1414 1417 1421 1425 1430 1435 1440 1446 1451 1455 1459 1462 1464 1465 1467 1467 1467 1466 1465 1463 1460 1457 1454 1451 1448 1444 1440 1437 1434 1431
1411 1409 1408 1407 1406 1405 1405 1405 1406 1408 1409 1412 1415 1418 1422 1425 1430 1435 1439 1444 1449 1453 1457 1460 1462 1463 1464 1465 1464 1463 1462 1460 1458 1456 1452 1449 1445 1442 1438 1435 1431 1427 1424
1411 1410 1409 1408 1408 1408 1409 1409 1410 1412 1414 1417 1420 1423 1427 1431 1435 1439 1444 1448 1452 1455 1458 1460 1462 1462 1462 1462 1461 1460 1458 1456 1453 1451 1448 1444 1440 1437 1434 1430 1426 1421 1417
1411 1411 1411 1410 1411 1411 1412 1413 1414 1416 1419 1422 1425 1428 1432 1436 1440 1444 1448 1451 1455 1457 1459 1460 1460 1461 1460 1460 1458 1456 1454 1451 1448 1445 1442 1439 1435 1432 1429 1425 1421 1416 1413
1412 1413 1412 1413 1413 1414 1415 1416 1418 1421 1423 1426 1429 1433 1437 1441 1444 1448 1451 1454 1456 1458 1459 1459 1459 1459 1458 1457 1455 1453 1450 1447 1444 1440 1437 1433 1430 1427 1424 1420 1416 1412 1408
1414 1414 1415 1415 1416 1418 1419 1420 1422 1425 1427 1431 1434 1438 1441 1445 1448 1451 1453 1455 1457 1458 1458 1458 1457 1456 1455 1453 1451 1449 1446 1443 1440 1436 1433 1430 1426 1422 1419 1416 1412 1408 1403
1415 1416 1417 1417 1419 1421 1423 1424 1426 1429 1432 1435 1438 1442 1445 1448 1451 1453 1455 1456 1457 1457 1457 1456 1455 1454 1452 1450 1448 1445 1442 1439 1436 1432 1429 1426 1422 1419 1415 1412 1408 1404 1399
1416 1417 1418 1420 1421 1424 1426 1429 1431 1434 1436 1439 1442 1445 1448 1450 1452 1454 1455 1456 1456 1456 1455 1454 1453 1451 1449 1447 1445 1442 1438 1435 1432 1428 1425 1422 1418 1415 1411 1408 1404 1400 1396
1417 1418 1420 1422 1424 1427 1429 1432 1435 1438 1441 1443 1446 1448 1450 1452 1453 1454 1455 1455 1455 1454 1453 1452 1450 1448 1446 1444 1441 1438 1435 1432 1429 1425 1422 1418 1415 1411 1407 1403 1399 1396 1391